Starlink 30570

operational
NORAD ID: 58095 Int'l Des: 2023-160 Owner: SPXS Country: US Constellation: starlink
LEOCIRCULAR

About Starlink 30570

Description loading...

Live Position

Loading 3D Globe...

Upcoming Passes

Altitude History

Altitude vs Time

uPlot chart will show altitude changes over time

Two-Line Element Set

1 58095U 23160W 25353.72521697 .00000213 00000-0 30811-4 0 9999
2 58095 43.0029 154.3752 0001468 263.6920 96.3755 15.02534997120891
Epoch: Dec 19, 2025 • Age: 13 hours

Current Status

Altitude 558.5 km
Velocity 7.58 km/s
Sub-Earth Point 5.41°N, 24.87°W
Launch Date Oct 18, 2023
Age 2.1 years
Type internet

Technical Details

Classification Payload
Mass 730.00 kg
Dry Mass 700.00 kg
Total Mass 730.00 kg
Length 0.30 m
Diameter 4.10 m
Span 29.00 m
Shape Box + pan
Manufacturer SPXS
Bus Type Starlink V2M
Phase Status In Orbit
Owner/State SPXS/US

Large Constellations

Loading constellations...